Theta_e
322 321 322 324 323 326 330 334 332 331 328 322 321 319 321 324 328 326 328 329 327 329 327 334 341 342 351 358 358 355 353 359 360 349 347 356 353 351 352 350 350 348 348 346 345 345 344 344 344 344 341 339 340 340 340 340 340 340 340 340 340 340 341 340 339 338 338 337 337 338 337 339 339 340 340 339 339 339 339 339 339 339 339 339 339 340 340 339 340 340 339 339 339 339 338 337 336
325 325 325 326 325 327 330 331 328 326 323 318 320 321 323 325 326 326 328 327 328 329 329 336 341 343 348 353 351 355 355 354 356 354 353 353 352 352 351 350 350 348 347 346 345 345 344 344 344 343 340 339 339 339 339 339 339 339 340 340 340 339 340 339 339 338 338 338 338 338 339 339 339 339 339 339 339 339 339 339 339 339 340 339 339 340 340 339 340 340 339 338 338 339 337 336 336
329 332 326 325 327 328 331 331 325 320 320 317 318 324 325 326 325 326 327 326 330 326 332 339 341 343 343 351 352 355 355 352 352 351 352 352 352 351 350 350 349 348 347 346 346 345 345 344 343 341 339 340 339 338 338 338 339 339 339 339 339 339 339 339 339 338 338 338 339 339 339 339 339 339 339 340 339 339 339 338 339 339 339 339 339 340 340 340 340 339 338 338 338 338 337 336 335
327 334 331 327 327 329 331 330 326 320 318 316 316 323 325 326 325 326 326 326 329 327 335 339 343 345 344 353 353 354 354 352 352 351 352 352 351 351 350 349 348 348 347 347 346 345 345 344 342 340 340 339 338 338 337 338 338 338 339 340 340 339 339 338 338 338 338 338 338 339 339 339 339 339 339 339 339 339 339 338 339 339 339 339 339 339 340 339 339 339 339 338 338 338 337 336 335
323 332 334 330 326 327 329 330 328 321 318 317 316 322 325 323 325 326 326 326 327 329 333 338 347 349 351 353 352 355 354 351 351 351 352 351 351 350 349 349 349 349 348 347 346 346 344 342 341 340 340 338 338 338 338 339 338 339 340 340 339 339 338 338 338 338 338 338 338 338 338 338 338 338 338 338 338 339 338 339 339 339 339 339 339 339 339 338 339 339 338 338 338 337 336 335 334
322 330 332 330 327 325 324 324 324 322 322 322 319 323 326 323 325 324 326 327 326 331 332 340 347 351 356 353 351 352 352 351 351 350 351 351 350 349 349 349 349 348 348 347 346 345 343 341 341 341 340 339 338 338 339 339 338 338 339 339 339 339 338 338 338 338 338 338 338 338 338 337 337 336 336 337 338 338 338 338 338 339 339 338 339 339 339 339 339 338 338 337 335 334 333 333 333
323 326 330 330 329 327 325 320 319 321 324 324 323 324 325 324 325 324 327 327 329 331 335 346 346 354 357 352 352 352 351 351 351 350 351 351 350 349 349 349 348 348 347 346 346 344 342 341 341 341 340 339 339 339 340 339 338 338 338 339 339 339 338 337 337 337 338 338 338 338 337 335 334 332 332 334 336 338 338 338 338 338 338 339 339 338 338 338 338 338 337 335 332 331 331 332 333
323 324 326 329 328 327 326 322 320 321 323 324 324 323 325 326 325 325 326 326 333 332 338 344 342 356 356 353 355 353 351 351 351 350 351 350 350 349 348 348 348 347 346 346 345 343 341 341 341 341 340 339 339 340 340 339 338 338 339 339 339 338 337 337 337 337 337 337 336 334 332 330 329 329 329 331 333 336 337 337 337 338 338 338 338 338 338 337 337 336 334 331 330 330 330 332 333
322 323 325 327 326 324 322 323 323 323 322 324 323 324 325 324 326 325 325 329 334 333 339 341 341 355 356 355 355 353 351 351 350 351 350 350 349 348 348 348 347 347 346 346 344 342 341 341 341 340 340 339 340 340 340 339 339 339 339 339 338 337 335 334 333 333 332 331 330 328 327 326 327 328 328 329 331 334 335 336 337 337 336 336 337 337 337 336 336 333 331 329 328 329 329 331 332
322 322 325 327 325 320 317 318 321 324 324 323 323 324 324 324 325 325 327 332 334 336 340 343 347 354 354 354 353 352 350 351 350 350 350 349 348 347 347 347 347 346 346 345 344 343 342 341 340 340 340 340 340 340 340 339 339 339 339 339 336 332 329 327 325 325 325 324 323 323 324 324 325 326 327 328 329 332 334 335 336 336 335 336 336 336 336 335 334 331 329 328 327 328 329 331 332
321 322 324 327 325 319 316 316 318 322 323 324 323 323 324 324 323 325 329 333 337 340 342 350 355 353 353 354 354 351 350 350 349 350 349 348 347 346 347 347 346 346 345 345 343 342 342 341 340 340 340 341 341 340 339 339 339 339 337 333 328 324 322 322 322 322 322 322 322 322 322 323 323 324 326 327 328 331 334 335 335 335 335 335 336 336 336 336 333 330 327 327 327 327 328 331 332
321 322 324 326 325 321 319 317 317 320 321 322 323 323 324 324 324 326 331 335 337 337 342 350 352 353 354 355 353 350 349 349 349 349 348 347 346 345 346 346 346 346 345 344 343 342 342 341 340 340 340 341 340 340 339 339 339 336 330 324 321 322 322 323 323 323 323 323 323 323 323 323 323 323 323 325 327 329 332 334 333 334 334 335 336 336 335 335 332 328 326 326 326 327 328 331 332
321 322 323 324 325 323 321 318 319 321 320 321 322 323 324 324 324 327 335 335 335 338 344 346 348 353 354 354 352 349 349 348 348 348 347 347 346 345 345 346 346 346 345 344 343 342 341 341 340 340 340 340 340 339 339 338 335 329 323 321 323 323 323 323 324 323 323 323 323 323 323 323 323 323 323 323 325 327 330 332 332 332 333 334 334 334 335 333 330 326 325 325 326 326 327 330 331
320 321 322 323 324 324 323 319 318 317 318 322 322 324 324 324 324 328 336 338 341 345 346 346 347 353 353 353 352 349 349 348 347 347 346 346 345 345 346 346 346 345 344 344 344 342 342 341 341 340 339 340 340 339 338 334 327 322 322 323 324 324 324 324 323 323 322 322 321 321 322 322 321 322 322 322 323 325 328 331 331 331 331 332 334 334 333 332 328 324 324 325 325 324 324 326 327
320 321 322 323 322 322 322 321 320 316 317 322 322 323 324 326 324 327 338 344 346 344 344 346 347 353 353 354 353 350 349 347 346 346 345 345 345 346 347 347 345 344 344 344 343 342 342 341 341 340 339 340 339 338 334 327 322 322 323 324 324 324 324 323 323 322 322 322 321 321 322 323 322 321 321 320 321 323 327 330 331 330 330 331 333 333 333 331 327 323 322 323 324 323 322 322 324
319 320 322 322 320 319 320 321 322 318 318 322 323 323 326 327 324 330 341 344 345 342 343 346 346 352 352 352 351 348 348 347 346 346 344 345 345 345 347 347 344 344 344 343 343 343 342 342 341 340 340 340 339 337 329 323 322 323 324 324 324 324 324 324 323 323 322 322 321 322 325 327 326 326 325 322 322 322 326 330 330 331 330 329 331 332 332 331 325 320 319 320 320 319 319 321 325
319 319 323 323 321 319 320 321 321 320 320 322 323 324 324 327 334 340 342 343 346 347 347 348 347 349 350 351 349 348 348 347 346 345 345 345 345 345 346 345 344 345 344 343 343 343 342 342 341 340 340 339 338 334 328 325 324 324 324 324 324 324 324 323 323 323 323 323 322 323 327 331 330 329 330 329 327 325 323 328 331 331 331 329 329 331 331 329 323 317 316 316 316 317 320 324 326
319 319 322 323 322 322 322 320 320 320 322 324 325 327 323 330 341 340 343 348 348 348 350 350 350 349 350 350 348 347 347 346 346 345 345 345 344 345 345 344 345 345 344 343 343 342 342 342 341 340 340 339 336 332 332 330 326 328 327 325 326 325 323 324 326 326 326 326 325 325 326 328 329 329 331 331 331 329 323 325 331 330 330 330 328 329 329 326 319 314 313 314 316 320 324 326 326
319 319 320 322 323 323 323 322 321 321 323 324 324 327 332 340 343 341 346 350 349 349 350 350 352 351 349 348 347 347 346 346 345 344 345 345 344 345 344 344 344 344 344 344 343 342 341 341 341 341 340 337 334 333 334 331 330 332 331 329 329 327 325 328 331 330 329 327 325 325 324 324 324 326 327 328 330 330 324 321 328 331 330 330 329 328 328 323 317 316 317 317 320 323 326 327 328
319 319 320 321 323 323 323 323 321 320 321 326 330 331 337 340 342 343 345 347 349 350 350 351 353 352 349 347 346 346 346 346 345 344 345 344 344 344 344 344 343 343 343 343 343 342 340 340 340 339 338 336 335 335 334 332 332 333 332 331 331 330 330 331 331 330 328 326 324 322 323 323 322 323 323 324 326 328 324 317 322 331 332 332 331 329 329 323 319 324 325 324 325 327 329 328 328
319 319 319 320 321 321 322 322 321 322 321 327 332 333 338 341 342 344 345 346 348 348 349 351 352 351 350 347 345 346 346 345 345 345 345 345 344 343 344 344 343 343 343 343 343 342 341 340 339 338 338 337 336 336 334 332 333 333 332 332 332 332 331 332 330 329 328 326 325 322 323 323 321 323 322 321 323 325 326 321 319 326 331 333 333 333 331 324 323 329 329 329 330 330 330 328 327
319 319 319 320 320 321 323 322 321 319 319 328 333 337 342 343 343 343 345 347 345 344 344 346 349 349 348 346 345 345 345 344 345 345 345 345 344 342 343 343 343 343 343 343 342 342 342 341 340 339 338 337 336 336 334 334 334 334 334 333 332 332 331 330 329 328 327 325 325 325 323 323 322 323 322 322 323 325 328 328 323 325 330 333 333 334 333 328 328 332 330 331 331 330 328 327 327
320 320 318 319 320 321 320 319 323 325 329 338 341 343 342 341 342 340 341 342 339 339 338 340 347 348 346 346 345 345 345 344 344 345 345 344 343 342 341 342 342 342 342 342 342 343 343 342 341 340 339 338 337 336 335 335 335 334 334 333 332 332 330 328 327 327 326 324 325 325 323 322 323 323 322 321 323 324 327 328 328 328 330 332 333 333 333 332 332 333 331 331 331 328 326 327 327
320 320 319 319 319 320 323 327 334 336 338 340 341 341 341 342 342 339 340 339 335 336 338 339 345 347 346 346 345 345 344 344 345 344 344 343 342 341 340 341 340 341 341 341 342 342 342 341 341 340 339 338 338 337 337 336 335 334 333 333 331 329 328 326 325 325 325 325 323 322 322 322 322 322 321 321 322 324 324 325 327 329 330 330 330 331 332 333 334 334 332 331 330 327 326 327 326
320 320 321 318 318 324 328 331 335 337 336 337 338 340 340 341 339 338 338 338 336 336 338 339 343 344 345 346 345 345 344 345 345 344 343 342 341 341 340 340 339 341 342 342 342 341 341 340 340 339 338 338 338 337 337 336 334 334 332 331 330 326 326 326 324 324 324 323 321 321 321 321 322 322 322 321 320 322 323 323 324 327 330 328 329 331 332 333 333 332 331 329 328 326 325 326 325
320 321 325 321 322 328 330 332 334 336 336 336 338 338 338 337 338 338 337 337 337 337 338 340 342 341 342 345 345 345 345 345 344 343 343 342 341 341 340 340 340 340 341 341 341 340 340 340 340 339 339 339 338 336 336 336 334 333 331 329 328 326 326 325 324 324 322 322 322 321 321 320 321 321 322 322 320 322 323 324 323 324 328 329 329 330 330 331 331 330 330 329 327 326 326 326 325
320 322 325 324 326 329 332 333 334 335 335 335 338 339 338 337 339 340 337 337 339 339 340 340 340 339 338 342 345 345 344 344 344 343 342 342 341 341 341 340 340 340 340 341 340 340 340 339 340 339 339 339 338 337 336 335 333 332 331 328 328 327 326 324 323 323 322 322 322 321 320 320 320 320 321 322 322 322 322 323 323 323 326 328 328 329 329 329 330 330 329 329 328 325 326 326 326
321 322 324 325 326 329 332 334 334 335 335 335 338 339 338 338 340 341 337 338 341 341 342 340 339 339 337 340 343 344 344 343 343 342 342 343 341 341 341 340 340 339 339 339 340 339 339 339 339 339 339 339 338 337 334 333 332 332 331 329 328 328 326 324 323 322 322 322 322 321 320 319 319 318 319 322 322 321 322 323 323 323 324 325 326 327 328 329 330 330 329 329 327 325 327 327 326
321 323 325 327 329 331 333 334 335 335 334 334 337 339 339 340 340 340 339 341 341 339 341 340 339 340 338 340 342 342 342 342 342 342 342 342 341 341 341 340 339 339 338 339 339 339 338 338 337 338 338 338 338 336 333 333 333 332 331 330 328 327 325 324 323 323 322 322 322 322 320 318 317 316 318 322 323 322 321 322 323 323 323 324 325 326 327 328 330 330 330 329 327 326 327 327 327
322 324 325 326 329 332 332 333 335 336 335 333 336 339 339 339 339 339 339 342 342 338 340 341 340 340 339 341 342 342 342 341 342 342 342 341 341 341 340 340 339 339 338 338 339 339 338 337 336 337 337 338 337 334 333 333 332 332 331 330 328 327 325 323 323 322 322 321 322 322 320 318 317 317 319 322 323 322 322 321 322 323 323 323 325 326 326 327 329 330 330 329 328 327 327 327 327
323 325 323 324 329 332 333 333 334 336 335 333 336 339 339 338 339 339 339 340 342 340 339 340 341 342 342 342 342 343 343 341 341 342 342 341 340 340 340 340 340 340 339 339 339 339 337 337 337 337 338 338 336 334 334 333 332 331 331 331 329 327 325 323 323 322 322 321 321 321 320 318 317 319 321 322 322 322 322 321 322 323 323 324 325 326 326 327 328 329 329 329 329 328 328 328 328
324 324 319 321 327 331 332 332 334 337 336 334 337 338 338 339 339 339 340 339 343 342 338 340 342 344 344 343 342 343 343 342 341 341 341 340 340 340 339 340 341 340 339 339 339 338 338 337 337 339 339 338 337 336 336 333 332 331 330 330 328 326 324 323 323 322 321 321 321 321 320 318 317 319 320 322 322 322 322 321 321 323 323 324 324 325 325 326 327 329 330 329 330 329 329 329 328
323 322 321 322 325 330 332 331 332 335 336 336 337 338 339 340 338 338 340 340 343 343 340 341 343 343 344 343 342 343 343 342 342 341 340 340 339 339 340 342 342 341 340 339 339 339 338 337 339 340 339 338 337 337 336 333 332 331 329 329 327 325 324 323 322 322 321 321 320 320 320 318 317 319 320 322 322 321 321 321 321 322 323 324 323 325 326 326 326 328 329 329 330 330 329 329 328
322 321 324 326 324 328 332 332 332 334 337 338 338 338 339 339 338 338 339 339 342 344 342 342 342 342 342 342 341 342 342 342 342 341 340 339 339 339 340 341 341 340 340 339 339 339 338 339 339 340 340 338 337 337 335 333 331 331 329 328 327 325 324 323 322 322 321 320 320 319 320 318 318 320 320 321 321 320 320 320 321 321 322 323 323 325 326 326 326 327 329 329 329 329 328 328 328
321 320 322 326 325 326 331 334 333 333 336 337 338 339 339 338 338 339 338 338 340 342 343 342 340 340 340 340 340 340 341 341 341 341 340 339 338 338 340 340 340 340 340 339 339 339 339 339 339 339 339 338 337 335 333 333 331 330 329 327 327 325 324 323 322 322 321 320 320 320 319 318 318 319 319 320 321 320 321 320 320 321 322 324 324 325 326 326 326 326 328 329 329 329 328 328 328
323 323 323 326 327 326 331 333 332 334 336 335 338 340 339 338 338 338 337 337 338 338 341 341 339 339 339 340 339 340 340 340 341 341 340 339 339 339 340 341 340 340 340 340 339 339 339 339 338 338 338 337 336 334 332 332 331 329 329 327 326 325 323 323 322 321 321 320 320 320 319 318 318 318 318 320 320 320 320 320 321 321 322 324 323 324 326 326 326 327 328 329 330 330 329 329 328
326 327 327 330 329 328 331 333 332 334 334 334 338 339 340 340 339 338 337 337 338 337 339 340 339 340 339 339 339 339 340 340 341 341 339 339 339 340 341 340 340 340 340 340 339 339 338 338 337 338 338 337 335 334 333 332 330 329 329 328 326 325 323 323 322 321 320 321 321 320 319 318 318 318 318 318 319 319 319 320 322 323 323 324 324 324 325 326 326 326 327 328 329 330 330 329 329
328 329 329 331 332 332 334 334 334 334 334 334 337 339 339 339 339 338 337 338 339 338 340 339 338 339 339 339 338 338 339 340 340 339 339 340 340 340 340 339 340 341 340 340 340 339 338 337 337 337 337 336 335 334 333 331 330 329 328 327 326 325 324 323 323 322 320 321 321 320 319 318 317 318 317 316 317 320 319 319 322 324 323 323 323 324 324 325 326 326 327 328 329 329 329 329 329
328 328 329 330 332 336 337 335 335 336 335 335 336 338 338 337 338 337 337 339 339 338 341 341 339 338 338 338 338 338 338 339 339 339 339 340 341 340 339 339 340 340 340 339 339 339 338 337 337 337 336 335 335 333 331 331 330 328 328 327 325 325 324 323 322 322 322 322 321 320 319 318 317 317 317 317 316 317 319 320 322 324 324 322 322 323 324 325 325 326 327 327 328 328 328 328 328
330 328 329 330 332 337 339 336 336 336 335 335 335 336 338 338 339 339 337 339 339 338 340 341 341 340 339 338 338 338 338 340 340 339 340 340 339 339 339 340 339 338 339 339 339 339 338 336 336 337 336 335 334 333 331 331 330 328 327 327 326 324 324 323 322 322 321 321 321 320 320 319 317 315 316 318 317 317 319 321 324 324 324 323 322 322 323 324 325 326 327 327 327 327 327 326 326
331 330 330 332 332 333 337 337 336 337 335 333 333 332 336 339 340 340 339 339 339 340 340 339 339 339 339 339 339 339 339 340 341 339 339 339 339 339 339 339 339 339 340 340 339 339 338 336 335 336 335 335 334 333 332 330 329 329 328 327 326 325 324 323 323 322 321 321 321 321 320 319 317 315 315 316 317 318 319 321 323 325 324 323 324 324 324 324 325 325 326 326 327 326 326 326 326
328 331 332 333 333 333 337 338 336 335 334 332 332 330 333 337 338 339 338 339 340 340 341 340 339 339 339 339 339 338 338 339 340 340 339 339 340 340 340 340 340 339 340 340 339 339 337 336 337 336 335 335 334 333 332 331 330 329 329 328 327 326 325 324 323 322 322 321 320 320 320 320 318 316 315 315 315 317 319 320 322 324 325 324 324 325 325 325 324 324 325 325 326 326 326 326 326
330 329 330 332 334 335 336 336 334 333 333 333 332 331 334 335 334 338 337 338 341 340 341 341 340 340 339 339 339 338 338 338 339 340 339 339 340 340 340 340 340 339 339 338 338 339 338 337 338 336 335 335 334 333 332 331 330 330 330 329 328 326 325 324 323 322 322 321 321 321 321 321 320 317 314 315 316 317 319 319 320 323 324 324 324 324 324 325 324 323 323 323 324 325 325 326 326
336 330 329 332 335 336 335 335 334 333 333 333 331 334 341 340 334 335 337 337 340 339 340 341 340 340 339 338 338 337 339 339 339 340 339 340 340 340 341 340 340 340 340 338 337 339 339 337 337 336 336 335 333 333 333 331 331 330 330 329 327 325 324 324 323 322 322 321 322 322 321 321 321 318 315 315 315 317 317 318 319 321 322 323 324 322 323 324 325 324 323 323 323 323 324 325 325
337 331 331 334 336 337 335 335 334 334 333 330 330 334 342 344 338 335 337 337 338 338 340 340 338 339 339 338 338 337 338 338 337 340 340 341 341 341 340 340 340 340 339 338 338 339 339 338 337 336 335 335 333 333 333 332 331 330 330 328 327 325 324 323 323 322 322 321 322 322 322 321 321 320 318 315 314 315 316 317 317 318 320 322 323 322 322 323 323 324 324 323 323 323 323 324 325
334 332 334 335 337 338 337 337 337 337 336 332 333 332 337 342 337 334 339 338 337 338 338 338 338 338 337 337 338 338 338 338 338 339 339 339 341 341 339 339 340 339 337 337 337 338 339 337 336 336 335 335 334 333 333 332 331 330 330 329 327 325 322 322 322 322 322 322 322 322 322 321 321 322 321 317 314 314 315 317 316 316 318 319 321 322 322 322 322 322 323 323 323 323 323 323 324
333 335 336 336 339 339 337 339 339 339 340 338 336 333 337 341 336 334 340 338 337 338 336 337 338 337 336 336 338 338 338 339 338 337 338 339 340 340 339 339 340 337 335 335 336 338 339 337 335 335 336 335 334 333 333 333 331 330 330 329 328 326 323 322 322 322 322 322 322 322 323 322 321 322 322 320 318 315 314 316 316 316 317 317 318 319 320 321 322 322 323 323 323 323 323 323 323
334 336 335 336 339 339 335 336 338 341 343 340 336 333 337 341 338 336 338 335 336 338 336 336 337 337 337 337 337 336 338 339 340 339 339 340 340 340 340 339 338 336 335 336 336 337 338 337 335 336 336 335 334 334 333 332 331 330 330 330 329 326 323 322 322 322 322 322 323 323 322 323 322 322 321 322 322 319 315 315 316 315 316 317 317 318 319 320 322 323 322 322 323 322 322 322 323
337 340 339 338 337 335 335 333 336 342 342 338 335 335 336 338 337 338 340 337 336 336 336 337 337 337 337 337 338 337 339 340 339 339 339 340 339 340 340 339 338 338 337 337 337 337 336 336 336 336 336 335 335 334 334 332 331 330 330 330 329 327 324 322 322 322 322 321 323 323 322 322 322 322 321 322 322 322 318 316 316 315 315 317 318 318 318 319 320 321 321 322 321 321 322 322 322
338 340 340 340 335 333 335 334 334 340 339 336 336 335 336 339 338 340 342 340 337 336 336 337 338 338 337 336 339 341 342 341 339 337 338 339 339 341 340 339 339 338 338 338 338 338 337 336 337 336 336 336 335 335 334 333 332 331 330 330 329 328 325 323 322 321 322 321 321 322 323 322 322 321 322 321 321 322 320 317 317 316 315 316 318 318 317 318 319 319 320 321 322 322 322 322 322
336 338 339 337 334 335 336 334 335 340 340 338 336 335 339 342 340 339 341 341 338 336 335 337 339 340 339 336 337 341 341 340 339 339 340 340 340 341 340 339 339 338 338 339 338 338 337 337 337 336 336 337 336 336 335 334 333 331 331 330 329 328 326 324 322 322 322 322 322 322 322 322 323 322 322 322 321 321 320 319 318 317 316 316 317 317 316 316 317 318 319 320 321 322 322 322 322
335 333 335 334 334 338 339 338 339 340 340 339 337 338 342 343 340 337 338 340 338 336 335 338 339 339 340 341 340 340 340 339 339 339 340 341 340 340 339 340 340 339 339 338 338 339 338 336 335 335 337 338 337 336 336 335 334 333 332 331 330 329 327 325 324 323 322 321 321 322 322 322 322 323 322 322 322 321 320 320 320 319 317 316 316 316 316 316 315 315 316 317 318 320 320 321 321
335 332 333 333 334 338 338 337 338 337 339 340 339 340 341 342 342 341 338 338 338 337 337 338 339 339 341 344 342 339 339 339 339 338 338 339 340 340 341 340 340 339 339 338 336 337 336 336 336 337 338 338 337 337 336 336 335 334 333 332 331 330 328 326 325 324 323 322 321 322 322 323 322 322 322 322 322 322 321 321 321 320 319 317 316 315 315 315 314 314 314 314 314 315 316 317 319
334 333 332 332 336 341 337 332 333 336 339 340 340 340 340 341 344 343 339 337 337 337 337 337 338 339 340 341 339 337 338 338 338 338 338 339 340 341 341 340 339 339 339 338 336 335 335 337 339 340 339 338 337 337 336 336 335 335 334 333 332 331 329 328 327 326 326 324 323 321 321 322 322 322 323 323 323 323 322 322 321 321 320 319 318 317 316 315 313 313 314 314 314 313 312 314 315
332 332 332 337 337 338 337 332 333 335 336 340 340 340 340 340 342 342 340 338 337 337 338 336 335 337 338 338 338 338 338 338 339 338 339 341 341 340 340 339 339 339 338 337 336 336 338 339 339 338 337 337 337 336 337 336 335 335 335 334 333 332 331 330 328 328 327 326 325 323 322 321 322 322 323 323 323 323 323 323 322 322 322 321 321 320 319 318 316 314 313 314 315 313 312 312 313
331 331 333 337 333 332 336 337 338 335 333 338 341 341 340 338 339 341 340 339 339 338 339 338 337 338 338 339 338 338 338 339 339 337 338 341 340 339 339 338 338 338 338 337 336 337 339 340 339 336 336 336 336 336 336 335 335 335 335 335 334 333 332 331 330 329 328 327 326 326 324 322 322 322 322 322 323 323 324 323 323 323 323 322 322 322 321 321 320 318 316 315 316 315 314 313 313
330 329 329 330 327 329 335 336 338 337 331 332 339 342 340 337 337 340 340 339 339 338 339 339 339 339 339 339 338 338 338 339 339 338 338 339 339 339 339 338 338 338 338 338 338 338 339 340 339 337 335 335 335 335 335 334 334 334 335 335 334 334 333 332 332 330 329 328 328 327 326 324 323 322 322 322 323 323 323 324 323 323 323 323 322 322 322 322 322 321 320 319 319 318 317 315 314
333 329 328 327 325 329 332 334 337 336 330 329 336 341 342 340 338 339 339 339 338 338 339 339 339 339 340 340 339 338 338 338 338 338 338 338 339 340 339 338 338 336 335 336 336 336 337 338 338 336 334 334 334 334 334 334 333 334 335 335 334 335 334 333 332 332 330 329 329 328 327 326 326 324 323 323 323 323 323 323 324 323 323 323 322 322 322 322 322 322 322 321 321 321 320 318 316
Wind_Speed
11 8 8 9 11 11 10 8 6 6 6 9 11 11 13 16 15 16 17 17 14 11 4 10 13 12 12 14 18 16 14 7 5 3 3 6 19 25 26 28 27 24 24 23 21 20 18 18 18 17 17 17 16 16 15 14 13 13 12 12 12 12 12 12 13 13 13 13 12 12 12 12 12 12 12 13 12 13 13 13 12 12 12 12 12 11 12 13 12 13 13 13 14 14 14 13 13
9 9 10 10 12 10 6 6 7 7 9 10 12 13 13 14 17 19 20 18 12 8 5 10 13 12 15 16 15 15 15 12 10 8 7 16 24 24 29 28 26 25 24 24 23 20 18 18 18 18 18 17 16 16 15 14 13 13 12 12 12 12 12 13 13 13 13 13 13 12 12 12 12 12 12 13 13 13 12 12 11 11 12 12 13 13 13 13 13 13 14 14 14 14 13 13 13
11 11 12 11 10 9 6 6 9 8 10 11 11 13 14 14 18 20 21 22 16 6 7 12 12 6 9 11 10 11 10 10 13 11 10 18 18 21 29 27 26 25 24 25 23 21 19 18 19 19 18 17 16 15 14 14 13 13 13 12 12 13 13 13 14 14 13 13 12 12 12 12 12 12 13 13 13 13 12 11 10 11 12 13 13 13 14 14 14 14 14 14 14 13 12 12 13
13 13 13 12 7 7 6 7 9 9 11 11 11 13 16 17 18 20 20 24 20 5 8 13 10 7 10 13 10 10 10 9 12 11 9 15 18 24 29 26 26 24 24 24 23 22 19 19 20 19 18 17 16 15 15 14 14 13 13 13 13 13 13 14 14 14 13 12 12 12 12 12 12 12 13 13 13 13 12 11 11 11 12 12 13 14 13 14 14 14 14 14 13 13 12 12 13
13 14 15 13 6 5 6 6 8 10 12 10 10 12 18 19 20 21 18 24 18 8 8 11 10 10 14 10 5 7 10 10 12 12 11 18 25 28 27 26 26 24 24 24 23 21 20 21 21 19 18 17 16 15 15 14 14 14 13 13 13 13 14 14 14 13 13 12 11 11 11 11 12 13 13 14 14 13 12 12 12 12 12 13 13 14 13 14 15 14 15 14 13 12 12 12 13
13 14 15 13 6 5 6 8 10 11 14 13 11 11 17 19 21 22 19 22 12 12 10 9 12 13 11 9 9 7 9 12 11 13 16 22 28 27 26 26 25 24 24 23 22 21 22 23 21 20 19 17 17 16 15 15 14 14 14 14 14 14 14 14 14 13 12 11 11 11 10 11 12 13 14 14 14 13 12 13 12 13 13 13 14 14 14 15 15 14 15 14 13 12 13 13 13
14 11 9 10 6 6 8 11 12 11 14 18 15 15 17 17 20 20 22 17 10 12 11 14 15 15 8 7 8 10 11 15 12 15 21 26 28 27 25 24 25 25 24 24 22 22 23 23 21 20 18 18 17 16 15 15 15 15 14 14 13 14 14 14 13 13 12 11 11 11 11 12 13 14 14 14 14 13 13 13 13 13 13 14 14 14 14 15 15 14 14 14 13 13 14 14 14
16 10 5 8 7 6 9 11 13 12 13 18 18 20 24 19 16 17 23 13 10 10 12 17 14 13 8 8 7 8 16 19 19 21 25 28 27 26 25 23 24 24 24 24 22 23 24 22 21 19 18 18 17 17 15 15 15 14 14 13 13 14 14 14 13 12 11 11 11 11 12 13 13 14 14 14 13 13 13 13 13 13 13 13 13 14 14 14 14 13 13 13 13 13 13 14 15
15 10 5 8 8 8 10 11 12 13 15 18 18 21 27 26 15 13 19 11 12 11 14 17 14 13 11 14 10 7 14 22 26 25 25 26 25 24 24 24 24 24 25 24 22 22 23 22 21 19 19 18 17 17 15 15 15 15 14 13 13 13 14 14 13 12 12 12 11 11 11 12 13 13 14 13 13 13 12 12 12 12 13 13 13 13 13 13 13 13 13 13 12 12 13 14 16
10 9 7 7 8 10 11 11 12 13 16 19 18 20 25 24 19 19 13 15 13 9 16 16 16 16 14 14 8 7 13 22 26 23 23 24 23 22 23 25 25 25 26 24 22 21 20 21 21 19 19 18 17 16 16 15 15 15 14 13 13 14 14 14 13 13 12 12 11 11 11 11 12 13 13 13 12 12 12 11 11 12 12 12 12 12 12 12 12 13 13 13 12 12 13 14 17
7 7 7 7 9 11 11 11 13 14 16 17 19 21 21 21 20 16 5 14 11 11 16 13 14 17 16 11 6 10 17 23 24 22 22 22 22 23 24 25 25 25 25 24 23 21 19 20 21 19 19 18 17 16 16 15 15 14 14 14 14 15 15 14 14 13 12 11 10 10 10 11 11 12 12 12 12 12 11 11 11 11 11 11 11 11 11 11 12 13 13 13 13 13 14 15 17
8 8 8 8 9 10 11 12 13 14 17 17 18 20 18 19 18 9 2 10 9 11 14 13 10 12 14 8 5 11 19 21 21 22 21 21 22 23 24 25 25 24 25 24 23 22 20 20 21 19 18 18 17 16 15 15 14 14 15 15 15 15 14 14 13 12 11 10 9 9 9 10 10 10 11 11 11 11 11 10 10 10 10 10 10 10 10 11 12 13 13 14 14 15 15 16 17
8 9 9 9 9 10 12 12 13 14 14 15 16 16 18 20 18 10 6 8 8 8 13 17 14 11 11 8 8 11 16 20 21 22 21 21 22 22 24 25 26 25 24 24 24 23 20 20 20 19 18 18 17 15 15 14 15 16 16 16 15 14 13 12 11 11 10 9 8 7 7 8 8 9 9 9 10 10 10 10 9 9 9 9 9 10 10 10 11 12 13 13 14 14 16 17 17
8 8 8 8 9 11 12 11 13 13 11 13 15 16 18 17 15 14 13 11 5 8 13 17 16 14 11 8 9 9 13 21 22 21 20 21 22 22 24 25 25 24 24 23 23 23 22 21 19 19 19 18 17 15 14 15 16 17 16 15 14 13 12 11 11 10 9 8 8 7 7 7 7 7 7 8 8 8 8 9 9 8 8 9 9 9 9 10 10 12 12 12 12 13 15 16 17
10 7 7 8 9 11 12 12 13 13 11 13 14 16 18 12 12 14 17 15 9 10 12 12 12 11 12 11 9 11 16 24 24 21 21 21 22 22 23 23 24 24 23 23 23 22 22 21 20 19 19 18 16 15 15 16 17 16 15 14 13 12 11 11 10 10 9 8 7 7 7 6 7 7 6 6 7 8 8 7 7 7 7 8 8 8 9 9 10 11 11 11 11 12 13 14 16
9 7 7 7 10 11 11 12 14 13 11 14 15 15 17 9 8 7 12 16 11 10 7 7 6 6 12 12 12 20 24 26 24 23 23 22 22 22 22 22 23 23 23 24 23 22 22 21 21 20 19 18 16 16 18 18 17 15 15 13 12 11 10 11 10 9 8 6 6 7 7 7 7 7 7 5 6 6 6 6 6 6 6 6 7 7 8 8 9 10 10 10 11 13 14 15 16
8 8 7 7 10 12 11 13 13 11 13 16 16 16 19 9 10 8 12 17 15 11 9 7 5 5 11 15 22 29 27 26 25 24 23 21 20 20 20 21 22 20 20 22 22 22 22 21 21 21 20 18 17 17 18 18 17 15 14 13 12 11 11 10 9 8 7 7 8 6 5 5 4 6 7 5 5 5 5 6 6 6 5 5 6 7 7 7 8 9 10 11 13 15 17 17 16
8 8 9 9 9 10 12 14 13 13 16 12 8 12 15 6 16 14 13 16 16 13 10 10 10 10 15 24 32 32 27 27 25 24 22 20 19 17 18 19 20 19 18 20 21 22 22 21 20 21 21 19 18 18 17 17 17 15 13 12 11 11 11 9 7 6 5 7 9 7 4 3 3 5 6 5 5 4 5 7 7 6 5 5 5 6 7 7 8 10 11 13 16 18 18 16 15
9 8 9 9 9 12 13 16 16 17 15 5 7 6 2 7 11 11 13 14 14 14 10 11 15 17 20 26 31 31 28 26 24 23 22 20 19 17 17 19 19 19 18 19 20 22 22 21 20 21 22 20 18 17 16 17 16 14 13 12 11 11 10 7 5 3 3 6 6 5 4 4 2 2 3 3 4 3 3 5 7 7 6 5 5 6 6 7 9 11 12 13 15 14 12 10 9
10 8 9 10 11 14 15 19 19 21 16 1 5 8 11 9 6 5 13 14 11 12 12 14 19 20 21 23 25 27 26 24 23 22 21 21 19 18 18 18 19 20 19 19 20 21 22 21 22 22 22 21 18 17 16 17 16 14 13 11 10 10 8 6 5 3 3 5 4 4 3 4 1 2 1 2 5 2 1 5 8 8 7 6 6 6 6 7 9 10 10 10 10 8 4 3 3
8 9 10 10 13 16 16 18 18 21 16 2 5 3 9 10 8 6 9 12 7 7 8 14 22 23 22 23 22 21 21 21 21 20 19 19 18 18 18 18 19 20 20 19 19 21 21 22 22 22 22 20 17 17 17 16 15 14 13 12 11 10 7 5 5 4 3 3 3 3 4 3 2 3 2 3 5 5 5 5 8 10 8 7 7 6 5 8 9 7 7 7 6 3 2 2 3
7 12 14 12 13 13 13 16 17 21 14 5 6 3 9 11 12 11 5 4 1 1 3 1 14 21 21 23 22 19 19 19 18 16 16 17 17 16 17 18 19 19 19 19 19 19 20 21 22 22 21 18 17 16 16 15 14 13 13 13 11 10 7 3 5 8 7 4 2 3 3 3 1 1 1 2 4 6 9 8 9 11 10 9 9 8 7 7 9 7 5 4 4 4 3 4 4
8 12 16 15 13 11 11 14 12 13 6 11 10 9 10 9 9 11 8 6 5 6 6 3 6 16 19 20 21 19 19 18 16 14 15 17 17 17 18 19 19 19 18 18 19 18 19 20 20 22 20 17 16 15 15 15 14 13 13 12 10 10 8 4 8 10 10 6 0 4 3 2 1 3 1 3 2 3 9 8 11 13 10 10 10 10 10 8 9 9 8 7 7 5 5 6 4
9 13 15 14 15 10 7 11 11 14 17 15 12 12 10 8 7 8 8 7 3 4 4 3 2 9 15 16 18 19 19 17 16 16 17 17 16 18 19 19 19 18 18 18 19 19 19 19 20 21 19 17 16 14 14 13 13 12 11 11 9 7 7 7 12 9 5 4 1 2 3 2 1 3 1 4 2 3 5 5 9 15 12 10 9 10 10 9 11 11 10 10 8 5 6 6 4
10 15 15 12 12 3 10 12 16 19 15 13 15 14 11 10 8 7 7 4 4 2 2 5 2 4 10 14 17 17 17 16 16 18 17 17 17 18 17 17 18 18 18 18 18 19 19 19 19 19 18 16 15 15 14 13 14 13 11 11 8 5 8 9 9 7 2 2 4 3 1 3 0 4 2 4 2 4 5 5 6 10 13 12 10 11 10 11 12 11 11 8 6 6 6 6 4
8 14 16 9 3 11 14 10 13 14 9 9 13 10 6 8 8 7 3 4 3 2 3 8 7 5 6 11 17 15 16 15 15 17 17 17 18 17 16 16 17 18 19 19 19 20 19 19 19 18 18 16 14 15 14 12 13 11 9 9 7 7 9 7 3 4 3 3 6 4 2 4 3 4 5 2 2 4 6 6 7 6 8 11 9 10 10 11 11 10 11 8 6 6 7 7 4
9 15 14 8 9 10 11 10 10 9 9 9 9 5 1 3 3 4 5 7 3 1 4 6 9 8 7 9 14 14 15 16 17 18 16 16 17 16 17 16 16 17 20 19 19 20 19 19 18 18 17 15 14 14 14 13 12 10 8 7 7 7 7 5 3 4 4 4 6 5 1 3 5 5 6 5 3 4 7 4 6 7 4 8 8 9 9 10 10 10 11 10 8 7 8 6 5
10 12 9 8 9 6 10 10 7 6 6 6 5 5 1 2 2 6 8 4 5 3 5 6 8 9 6 8 10 11 12 16 19 17 14 14 15 16 17 17 17 18 19 18 18 19 19 18 18 17 17 15 14 13 13 14 12 9 7 8 8 6 4 4 5 4 4 3 4 3 2 2 4 6 6 7 5 1 5 3 6 7 5 5 7 8 9 9 9 7 9 11 8 7 7 6 6
7 6 5 7 6 7 10 6 5 5 2 3 4 3 3 2 5 7 5 4 8 2 5 7 6 8 6 8 8 10 11 15 16 15 14 15 16 17 17 17 18 17 18 18 18 18 18 18 17 17 17 15 14 13 14 13 12 10 7 8 8 6 5 3 4 5 4 2 2 3 2 1 3 4 6 8 6 2 5 5 7 7 6 5 5 6 8 8 9 8 8 9 7 6 7 7 6
5 3 2 5 3 5 5 4 3 5 3 4 4 2 3 5 7 7 5 6 8 1 5 7 7 9 8 8 9 10 10 12 12 14 16 16 16 17 17 17 18 17 17 17 18 18 18 18 17 17 17 15 14 14 14 13 12 10 8 9 8 6 5 3 3 4 2 1 2 4 5 2 1 2 4 6 5 2 4 6 7 7 7 6 4 4 4 6 8 8 7 7 7 6 8 8 6
4 3 2 1 1 2 2 2 2 1 5 6 3 2 5 8 9 7 4 6 11 6 8 8 6 8 10 9 10 10 9 10 11 14 15 15 17 17 17 18 17 16 18 17 18 18 18 18 17 18 17 16 15 14 13 12 12 11 9 10 8 4 4 4 4 3 1 2 2 4 6 4 2 3 3 4 4 3 3 5 7 7 6 6 5 4 5 6 8 7 6 7 7 7 7 8 7
5 3 3 4 2 1 1 2 3 4 3 7 5 3 4 9 7 8 6 4 11 9 9 10 7 7 10 10 10 9 8 10 12 14 15 15 16 16 16 17 16 16 17 17 18 19 18 18 17 18 18 16 16 14 13 12 11 10 9 11 8 4 3 4 6 2 1 1 1 7 8 4 2 4 3 2 4 4 5 5 8 10 8 6 6 6 6 8 8 7 6 6 7 8 7 7 7
5 5 3 3 3 3 1 3 7 9 4 7 6 3 3 7 7 8 7 5 9 10 11 10 9 9 10 10 10 9 9 9 10 13 16 15 15 16 16 16 15 15 16 16 19 19 18 18 17 18 18 16 16 15 13 12 11 9 9 10 8 5 3 3 6 2 2 1 1 7 8 4 1 4 4 2 4 5 6 5 7 11 10 6 6 6 5 7 8 8 7 7 8 8 6 6 8
5 5 2 3 3 3 3 3 8 11 7 6 7 4 3 8 9 7 5 5 5 7 11 10 9 10 10 10 9 9 9 9 8 11 15 14 15 16 17 17 14 13 16 17 18 18 18 18 17 18 18 15 16 16 14 12 10 9 9 9 7 5 3 3 5 3 2 2 1 6 6 3 1 3 4 3 4 5 6 5 5 8 10 8 7 5 6 7 7 7 8 7 7 8 7 7 7
6 6 3 4 5 5 7 5 7 10 9 7 8 7 6 10 10 7 4 4 3 5 8 9 9 9 9 8 9 9 9 10 8 9 14 14 15 16 17 18 16 15 16 16 18 18 18 18 17 17 18 16 15 15 14 12 9 7 9 9 7 5 2 2 4 3 1 1 1 3 4 1 2 3 4 3 4 4 5 5 6 7 8 9 8 7 7 8 7 6 7 7 7 7 8 8 7
6 6 4 4 5 5 7 5 7 12 9 7 7 6 9 10 8 6 4 4 3 7 10 9 9 8 8 7 7 8 8 9 9 10 13 14 15 16 17 17 17 17 16 15 18 18 18 19 18 18 17 17 16 15 14 13 11 8 8 9 8 6 3 4 5 2 0 1 2 4 4 2 1 3 4 3 4 4 5 5 6 7 7 7 9 9 8 8 8 6 6 7 8 8 9 9 7
5 3 2 4 4 4 8 6 8 11 8 7 6 5 9 10 8 7 5 4 5 10 12 10 9 8 8 8 8 8 8 7 9 10 11 13 16 17 19 19 17 16 15 15 17 18 19 19 19 18 18 17 16 16 15 14 13 11 9 8 7 9 5 4 7 5 2 2 2 5 4 3 1 3 3 3 4 4 5 5 5 6 6 7 10 11 9 9 8 8 7 7 7 9 9 9 9
5 2 1 4 3 2 4 7 10 10 7 7 8 7 6 6 7 8 5 5 7 12 12 11 12 10 7 7 8 7 7 6 7 9 11 12 14 16 18 18 16 15 15 16 17 17 19 19 18 19 18 17 16 16 17 15 13 12 11 8 7 10 9 4 5 6 4 3 3 1 2 1 2 3 4 4 5 5 5 5 4 5 6 8 10 10 10 10 9 8 8 7 8 9 10 9 9
3 1 1 2 2 3 2 5 8 8 5 6 10 8 5 5 7 8 8 7 7 11 10 7 8 10 9 9 8 7 7 8 8 10 12 11 11 13 15 14 14 14 14 16 16 17 18 18 18 18 18 17 16 16 15 13 11 10 9 8 7 8 10 8 5 4 5 5 3 1 1 3 2 4 6 5 5 6 5 5 5 5 6 7 9 9 9 10 11 8 7 8 9 9 10 11 10
1 2 2 1 2 2 1 6 9 9 5 6 10 6 6 8 9 10 12 11 10 12 7 4 4 3 6 9 9 10 10 10 10 11 12 10 10 12 12 13 14 14 15 15 15 15 16 17 18 18 18 17 16 15 14 11 10 10 8 8 7 5 6 9 7 4 3 2 1 2 4 5 2 3 4 3 4 5 5 5 5 5 6 6 7 8 9 10 11 9 8 9 10 10 11 11 11
2 3 3 2 4 8 6 7 11 9 6 8 10 6 6 9 10 10 10 11 13 11 8 5 4 4 4 4 5 9 11 11 12 13 11 10 11 13 12 14 15 15 15 13 13 14 15 17 18 18 17 16 16 15 13 12 11 10 9 8 7 5 3 6 8 5 4 5 5 5 7 7 3 1 2 2 1 2 4 6 6 5 5 6 6 7 8 10 11 11 10 10 11 12 11 7 7
2 4 6 6 10 12 8 9 10 6 4 9 10 5 4 8 9 8 8 9 10 10 9 8 7 8 6 4 3 5 8 9 10 11 10 10 11 12 13 15 15 15 15 13 14 14 14 17 17 17 18 17 16 15 13 13 12 10 9 8 7 6 4 4 6 5 7 9 7 7 9 8 3 1 1 2 3 2 2 4 6 6 5 6 7 8 8 10 12 12 12 11 11 11 10 7 6
2 3 8 9 10 10 9 9 7 3 3 7 9 4 2 6 7 7 7 7 9 9 9 9 8 8 7 5 5 4 6 6 5 8 11 12 12 12 12 14 15 15 14 14 14 14 14 16 17 17 18 17 16 16 15 13 12 11 10 9 9 9 7 6 6 6 8 6 4 4 8 5 2 3 2 2 3 3 3 3 5 7 6 6 7 9 10 9 11 13 11 11 11 10 11 10 10
2 6 10 11 12 9 9 7 3 0 1 4 7 3 3 2 4 6 7 6 8 9 8 9 9 9 9 8 7 7 8 6 3 7 11 12 13 13 13 15 15 14 11 11 12 13 13 14 17 18 17 17 16 16 16 14 14 14 12 10 9 10 11 10 9 7 7 5 4 1 5 2 3 6 2 2 3 4 5 4 5 7 7 7 6 9 11 9 9 12 11 10 10 10 12 12 11
2 4 6 6 5 1 4 3 1 1 2 4 5 3 2 1 3 3 5 5 7 8 9 10 10 11 10 9 9 8 8 9 5 6 9 10 13 15 15 15 14 13 12 11 12 13 13 13 16 19 18 17 17 16 17 15 15 15 13 10 8 9 11 10 9 10 10 8 5 1 1 1 2 4 3 3 4 4 4 5 5 6 8 7 6 7 9 9 9 11 11 10 9 9 10 8 7
2 2 3 4 7 6 3 1 3 3 1 3 4 4 1 0 2 3 5 6 7 8 9 10 11 11 11 10 10 9 7 8 7 8 7 9 13 15 15 15 13 13 13 15 15 13 13 15 18 19 18 18 18 17 17 16 15 14 12 10 9 9 9 9 10 13 13 12 8 5 4 4 5 7 6 5 3 3 4 5 5 6 7 8 8 7 8 9 10 11 11 10 9 8 8 6 4
3 3 2 5 5 3 1 2 1 2 1 2 2 3 3 1 2 3 3 3 4 7 8 9 12 12 12 11 10 9 9 8 8 9 6 6 11 13 13 12 12 14 13 16 16 13 13 16 19 19 19 18 18 18 18 17 16 15 13 12 11 10 11 11 10 10 11 12 11 8 8 9 8 6 6 5 2 3 5 6 6 7 6 7 9 9 7 6 7 9 11 11 9 8 9 9 7
4 3 2 3 2 3 3 3 4 2 1 3 2 5 5 3 1 1 4 6 5 6 7 8 11 12 12 10 10 11 9 8 7 6 7 7 8 9 11 11 11 15 16 15 14 14 15 17 19 20 20 20 20 19 19 18 17 16 14 13 13 11 9 11 11 10 9 9 12 13 11 11 10 7 6 5 4 5 6 7 7 8 6 5 7 9 8 7 6 6 10 12 10 8 9 10 10
4 4 3 1 2 4 3 3 3 1 2 3 3 3 3 3 3 6 8 9 8 7 5 6 8 10 11 9 9 7 9 10 8 7 8 8 7 8 10 11 12 15 17 17 15 16 18 19 19 20 22 21 20 19 19 19 18 17 15 14 13 11 9 10 11 12 12 10 11 14 13 13 11 9 9 9 8 8 8 9 8 8 8 6 6 8 8 7 7 7 8 11 11 9 9 11 12
3 3 2 0 1 2 2 2 2 2 3 4 5 4 3 3 4 8 9 9 10 10 4 2 5 4 7 9 7 7 8 8 8 7 8 8 9 10 11 12 13 13 14 16 17 17 18 21 21 21 22 21 20 19 18 18 18 16 15 15 13 11 10 10 9 10 12 13 13 14 13 13 13 12 11 10 9 8 9 10 9 8 8 8 8 9 10 8 6 7 7 8 9 10 10 11 12
4 5 5 3 2 1 0 0 2 4 4 4 5 4 3 3 4 5 6 7 8 7 3 5 5 5 1 6 7 8 5 4 5 6 8 10 11 11 10 11 12 12 13 14 15 15 14 17 20 20 19 20 20 19 18 18 18 16 15 14 13 12 12 11 11 10 10 11 11 12 12 11 12 12 11 10 10 9 9 9 8 7 8 9 8 9 10 10 8 9 9 8 8 9 10 11 11
3 3 4 3 0 2 1 3 4 5 5 3 3 3 2 2 5 3 3 6 6 4 2 4 3 7 8 4 6 7 4 2 3 2 3 7 12 12 11 11 10 11 13 12 13 13 10 13 18 19 17 19 19 18 18 18 17 17 16 15 15 14 12 12 13 11 10 10 8 7 10 11 12 11 9 9 10 9 8 9 8 8 10 9 9 9 9 10 10 11 11 11 10 9 10 12 12
1 2 4 4 5 5 2 3 4 3 5 3 1 3 2 1 5 5 2 6 4 5 6 3 5 8 7 5 5 6 4 2 3 4 4 5 9 11 12 12 10 10 13 14 13 11 11 13 15 15 15 16 16 15 16 17 16 17 18 18 17 15 13 12 14 14 12 11 9 9 9 9 11 11 10 10 10 8 8 9 8 8 10 10 9 9 9 9 10 11 11 12 12 12 12 12 13
1 1 2 5 8 4 2 2 4 3 4 3 2 3 2 2 2 4 1 9 9 8 9 7 9 10 7 6 6 7 8 6 6 7 5 4 6 9 12 12 12 13 13 14 13 13 15 14 11 12 13 14 15 14 14 16 17 18 18 19 19 16 15 15 15 15 13 10 11 12 12 10 10 11 12 11 11 10 9 9 9 9 9 10 9 8 9 10 10 11 11 10 11 13 14 14 14
3 2 3 5 5 2 2 2 3 3 5 4 2 3 3 2 3 1 5 9 9 10 11 10 11 10 9 10 10 10 9 7 6 6 4 4 3 4 6 8 10 10 9 10 11 13 13 10 8 10 11 13 14 16 16 15 15 17 18 19 20 18 18 17 15 14 13 13 12 13 15 15 13 12 13 13 12 12 12 11 12 12 12 12 11 10 10 10 10 11 11 11 11 12 13 15 15
6 5 1 4 2 2 2 1 0 2 4 5 3 3 4 3 2 4 8 8 8 10 9 10 11 11 11 11 10 9 9 7 7 6 3 3 3 3 5 6 6 5 5 6 7 7 6 6 7 10 10 11 13 15 15 11 11 16 18 18 19 20 19 18 15 14 15 16 14 14 16 19 18 15 15 16 15 15 14 13 13 14 15 15 14 14 14 13 12 12 12 11 11 11 13 14 15
3 2 0 1 1 3 4 2 1 0 2 5 5 3 3 3 2 4 8 8 8 10 9 10 11 12 13 12 10 9 8 8 8 8 5 4 5 5 6 5 5 7 6 5 6 4 4 5 6 8 8 9 10 11 9 8 13 19 20 19 19 21 21 19 17 17 17 17 16 15 15 17 19 18 18 18 17 16 15 15 15 15 16 16 17 17 16 15 15 14 14 13 12 12 13 14 14
3 1 1 1 2 3 3 3 0 2 0 4 6 4 2 3 3 2 6 7 7 9 11 10 11 12 13 13 11 10 9 8 7 7 7 7 7 6 6 6 7 9 7 5 5 4 3 3 3 4 5 8 8 7 7 12 20 24 23 20 20 20 20 18 18 18 18 17 17 16 16 15 15 17 19 19 17 17 16 17 17 17 17 17 17 17 18 18 17 16 15 15 14 14 14 14 14
Wind_Direction
216 234 242 242 237 245 248 225 226 215 226 244 234 238 230 229 241 245 241 230 235 241 268 35 48 51 75 100 102 78 46 37 23 109 143 115 130 133 133 134 134 133 132 136 139 137 136 135 133 132 129 128 125 122 120 119 117 115 112 109 107 105 103 101 98 94 90 88 86 85 82 81 78 76 74 71 69 67 65 63 63 62 62 66 65 65 70 72 73 74 77 77 75 74 74 73 71
225 239 233 236 233 238 248 211 230 222 213 239 235 235 233 229 231 237 246 241 240 217 163 75 76 84 102 112 106 79 56 52 63 88 101 121 124 128 136 135 134 134 135 137 136 136 136 135 134 131 129 128 125 123 121 120 118 115 113 110 109 108 105 102 98 94 91 89 87 86 85 82 79 77 74 72 68 66 66 65 66 66 66 69 69 70 72 74 75 76 78 77 76 74 73 72 70
234 248 224 220 226 231 247 219 225 229 218 229 236 234 233 232 228 229 237 245 253 221 132 105 100 92 112 100 73 76 84 81 88 99 113 129 127 134 139 135 135 135 136 136 136 137 136 136 134 132 130 127 125 124 122 120 117 115 114 112 111 108 106 103 99 95 92 91 90 88 87 84 82 78 74 72 69 67 68 65 63 68 70 71 72 73 74 77 76 77 77 76 75 74 72 71 69
231 250 233 212 213 225 234 230 222 232 231 228 234 230 229 234 234 230 228 239 243 196 111 113 93 39 82 87 76 87 97 100 106 112 124 134 133 138 139 136 135 134 135 136 137 137 136 137 134 132 129 127 126 124 122 119 118 117 115 113 112 110 107 104 100 96 94 93 93 92 90 87 84 80 76 73 72 68 67 67 64 70 75 74 75 74 74 76 76 76 76 76 74 73 70 68 68
235 247 241 220 209 218 220 237 226 227 230 232 238 226 224 228 237 236 226 235 229 153 141 133 100 63 68 61 53 92 107 116 119 119 119 128 133 138 139 136 135 134 135 135 136 136 137 136 134 133 129 128 126 125 123 120 120 119 117 115 114 111 108 104 100 97 95 95 95 94 91 88 85 81 78 75 74 70 68 69 69 73 76 75 76 74 74 76 76 76 75 76 74 73 70 68 68
238 244 239 229 237 238 222 231 227 229 230 234 244 237 224 216 229 240 236 233 201 144 155 125 107 94 73 52 48 60 117 124 118 120 121 128 135 139 138 137 135 134 135 135 133 135 137 137 135 132 129 129 128 126 124 123 123 120 119 117 115 113 109 105 101 98 98 98 96 95 92 90 87 83 80 77 75 72 69 71 74 77 77 76 76 76 77 77 77 76 76 76 74 73 70 70 71
224 232 231 224 241 250 237 232 230 234 231 233 242 249 240 215 211 228 245 236 158 147 136 105 107 98 95 107 66 32 87 115 120 126 128 132 137 139 138 137 135 134 134 132 131 134 137 136 134 132 131 131 129 127 125 125 124 122 121 119 117 114 111 106 103 101 100 99 97 95 95 93 89 85 82 79 77 74 72 74 78 80 80 79 79 80 79 79 78 77 78 77 75 73 71 73 74
220 223 220 211 217 231 238 238 236 237 234 233 235 249 256 244 215 212 236 226 138 160 126 116 121 97 101 111 90 43 74 105 118 124 129 132 138 140 138 134 133 133 132 129 130 134 135 135 133 133 132 131 130 128 127 127 125 124 122 119 118 115 113 109 106 104 103 101 100 99 98 94 89 85 82 80 78 76 77 79 82 84 83 81 81 82 81 82 81 79 79 77 76 73 73 77 78
219 220 223 218 217 221 230 237 237 239 241 239 234 239 254 264 263 248 237 189 151 175 132 128 127 106 103 93 97 88 85 107 117 125 131 134 141 141 137 133 132 131 129 128 129 132 134 135 134 133 132 132 131 130 130 129 127 125 123 121 120 119 116 112 110 108 106 105 102 101 98 93 89 84 81 79 78 78 79 81 83 84 84 83 83 83 83 83 81 81 80 77 77 75 76 82 82
212 216 225 222 221 224 224 232 237 239 240 243 244 238 245 257 264 274 249 160 152 155 126 119 114 113 109 98 104 108 112 121 122 129 134 138 141 139 134 132 132 130 128 128 128 131 133 135 134 132 132 132 132 132 132 130 129 128 126 123 122 121 117 114 113 110 108 105 103 100 96 93 90 86 82 78 78 79 80 81 84 85 84 85 85 84 84 83 83 82 81 81 80 80 84 89 89
208 211 223 227 223 226 225 227 232 239 242 242 247 245 246 245 243 273 265 139 132 123 119 99 100 111 105 102 110 122 131 131 130 134 138 140 139 136 129 129 133 130 129 129 131 132 133 135 133 132 132 133 134 134 133 133 132 131 130 127 125 122 117 115 112 109 106 102 101 99 96 94 91 88 85 81 78 79 82 84 86 87 86 86 86 86 88 86 86 85 84 85 83 82 88 94 94
220 206 210 226 224 227 230 230 231 232 241 242 242 242 244 244 232 239 154 144 167 163 131 106 115 115 108 112 118 135 138 135 135 137 140 138 137 134 127 129 132 131 131 131 132 131 133 135 133 134 135 135 134 134 135 136 135 133 134 131 126 122 118 116 112 108 104 100 98 95 94 93 91 89 87 86 83 81 83 88 90 90 89 88 89 89 91 91 90 89 87 88 86 84 87 95 97
228 213 209 223 225 234 235 233 237 233 235 235 240 241 242 242 219 183 148 162 188 175 125 123 137 114 109 121 127 144 141 138 138 139 141 136 136 132 127 131 131 131 132 131 132 132 135 136 135 136 137 136 135 136 137 139 139 137 136 132 127 124 120 117 111 106 100 95 92 87 87 86 88 88 87 88 87 86 87 92 94 93 93 91 93 93 95 96 93 90 89 92 90 87 89 95 98
228 226 218 226 227 233 239 238 233 234 237 228 234 240 245 244 206 170 143 139 109 110 116 127 133 110 113 128 137 154 143 142 141 141 142 135 136 129 126 131 130 133 133 132 133 134 137 137 137 139 139 139 138 139 140 142 142 140 137 133 130 126 121 115 108 103 97 91 86 80 78 74 75 80 86 94 93 92 92 97 99 96 98 96 94 98 103 102 98 94 94 97 95 92 92 95 99
227 237 227 230 233 231 236 243 239 236 237 229 225 233 246 248 209 186 145 126 86 109 124 127 128 111 138 151 152 156 145 145 143 142 143 136 134 128 128 131 132 134 134 135 135 137 139 138 139 140 142 142 141 142 143 145 144 143 140 136 133 128 122 114 108 104 95 88 82 75 74 72 69 67 77 94 101 102 99 101 106 104 101 101 100 103 109 108 101 97 98 102 99 96 96 97 99
224 238 236 231 232 234 231 236 247 242 237 233 218 224 242 226 195 192 123 114 104 111 105 116 125 112 150 154 142 146 145 145 143 145 144 136 133 132 131 130 131 133 134 137 137 140 141 140 141 142 146 145 142 143 145 148 147 147 142 140 135 129 122 114 112 105 93 84 84 82 78 78 67 65 76 86 99 112 117 116 115 115 112 106 106 109 115 114 104 101 105 108 103 99 99 101 99
223 229 234 238 230 231 232 229 240 244 243 238 213 218 234 195 113 91 96 104 104 92 71 76 62 88 135 133 133 141 143 142 145 148 144 138 138 137 134 131 131 132 135 139 139 142 142 143 145 146 149 145 143 144 146 150 151 151 146 143 138 131 125 118 115 107 98 91 89 81 74 90 78 74 89 94 87 99 127 140 135 128 131 119 114 119 122 117 106 106 111 110 106 103 103 102 97
223 223 221 232 234 233 237 234 238 245 247 251 237 235 234 164 95 103 104 95 94 81 74 79 72 85 109 122 133 139 140 143 150 151 146 147 149 143 142 140 137 138 139 140 142 145 145 146 148 150 149 146 147 146 147 153 153 151 148 144 139 134 128 123 121 119 121 115 101 79 61 119 127 90 97 108 94 91 129 150 151 145 149 139 129 126 126 121 110 113 114 112 110 106 102 98 94
224 225 225 225 231 237 242 245 244 247 248 280 328 318 15 72 80 111 112 100 102 96 93 97 99 106 116 127 136 140 142 147 154 154 151 156 155 148 149 147 143 144 144 144 146 148 149 149 150 152 150 148 149 147 151 157 154 150 150 144 138 135 133 134 134 146 155 141 122 73 60 92 85 54 75 122 130 109 133 159 166 161 163 159 148 136 131 123 116 121 121 120 122 116 110 102 95
231 223 230 225 229 239 244 249 247 250 253 288 5 11 48 53 42 92 126 126 119 121 139 136 131 133 133 137 139 141 145 151 157 157 158 159 155 149 149 149 147 148 148 147 148 151 153 153 153 152 148 150 151 150 154 157 155 154 153 143 141 144 149 157 149 151 133 112 89 54 93 99 2 269 359 273 205 204 213 177 175 171 169 172 167 154 143 134 129 131 132 137 142 140 146 131 96
235 229 236 226 222 233 245 252 252 256 258 51 51 48 64 60 38 35 139 145 140 155 169 148 144 144 140 141 141 143 147 154 160 161 161 157 153 149 148 150 148 146 147 147 150 153 154 154 154 152 150 153 154 153 156 158 157 153 149 147 150 156 154 168 176 154 123 101 78 71 135 125 305 207 80 314 212 202 232 200 181 180 174 179 178 168 160 145 141 145 146 148 154 172 201 141 105
245 239 243 237 226 230 245 255 256 255 253 56 42 53 68 60 39 23 56 114 140 282 329 129 144 141 143 143 142 146 150 155 160 161 160 152 151 149 144 146 143 142 146 147 150 153 153 154 155 153 154 157 155 155 156 154 153 150 153 155 155 161 156 166 164 125 101 117 108 37 116 128 337 195 105 245 197 187 217 213 188 185 176 180 182 171 177 167 157 174 185 175 193 211 177 134 125
253 250 244 239 241 242 251 266 271 272 307 48 51 46 56 73 56 32 47 60 354 342 1 313 167 142 144 143 144 150 151 156 156 157 158 151 151 149 142 144 144 145 148 148 150 154 152 152 154 153 155 156 154 155 151 150 156 156 155 154 157 168 172 145 120 110 103 114 350 346 44 88 15 351 71 192 254 201 208 215 189 183 178 180 186 175 180 189 188 197 205 217 230 207 159 145 139
251 261 254 239 240 249 288 325 5 33 33 36 54 57 52 73 77 41 33 59 42 343 42 14 278 145 145 142 146 150 150 154 152 155 157 153 151 148 145 145 147 146 145 147 148 153 154 152 154 152 154 153 152 152 146 149 156 153 154 163 169 167 159 119 89 82 111 119 326 315 21 17 291 317 102 155 281 234 207 246 195 180 180 178 183 185 186 198 207 208 208 219 226 193 154 149 140
262 262 267 247 233 315 19 8 31 52 47 29 44 53 54 69 88 70 12 23 90 324 86 93 41 136 150 147 148 150 151 153 150 154 156 152 148 147 147 145 146 143 143 148 147 150 153 155 155 152 154 152 152 152 146 147 150 152 162 170 167 124 113 106 78 67 105 107 99 138 335 353 326 288 276 157 202 238 216 259 234 191 185 180 181 186 192 205 208 211 212 210 208 185 150 141 134
282 279 289 291 295 33 29 21 37 57 61 47 55 44 50 93 99 82 339 292 91 306 213 141 128 137 178 162 153 154 151 151 150 154 154 149 147 147 149 147 148 145 145 149 149 151 153 156 156 153 155 152 150 150 146 147 149 156 157 152 148 118 99 87 82 97 103 107 105 133 262 346 342 305 305 225 195 235 214 233 266 249 187 171 180 187 192 211 217 223 217 207 206 181 146 146 151
260 275 281 341 21 34 30 24 33 59 60 56 86 78 332 147 125 115 213 239 118 167 225 157 135 144 212 192 155 151 150 151 153 154 151 147 149 151 151 150 149 147 146 149 151 154 155 156 155 154 153 150 148 148 149 147 149 159 147 127 120 117 106 90 116 119 113 116 72 57 42 1 312 305 312 285 279 209 196 216 256 269 219 161 177 189 191 216 226 227 214 217 225 170 145 155 162
247 270 275 14 25 43 40 27 22 46 53 36 87 126 216 213 164 145 179 210 85 132 188 164 145 141 217 219 153 146 150 150 153 153 151 149 154 156 154 155 154 153 152 153 155 155 156 156 153 153 152 148 146 147 151 147 148 161 146 124 119 118 128 128 136 124 114 118 55 32 52 24 280 286 288 278 313 198 187 212 229 258 275 188 190 190 191 214 216 211 210 225 227 155 152 165 168
265 293 305 360 21 59 36 10 27 47 88 29 42 145 180 155 136 121 130 88 60 66 171 162 168 139 197 226 151 143 151 148 152 151 152 153 156 157 156 159 157 156 157 156 155 153 154 154 152 152 151 148 147 147 151 150 149 154 142 128 128 132 138 134 126 108 82 62 91 152 136 18 264 274 270 271 302 277 227 231 222 250 265 233 220 198 188 200 201 203 213 219 208 160 163 169 172
263 269 295 343 11 67 30 324 15 47 107 85 58 154 192 155 134 107 102 111 95 193 200 181 199 153 173 212 152 145 151 147 152 149 153 156 156 158 157 158 159 155 155 157 154 152 153 152 152 153 153 152 151 149 149 152 150 148 149 141 131 131 142 151 114 92 87 103 107 137 130 119 251 253 260 276 284 275 260 237 231 252 252 244 239 220 197 197 215 220 213 204 195 185 172 171 181
219 234 231 296 2 49 17 313 327 39 123 129 130 209 199 152 137 131 134 135 122 156 214 200 212 166 162 181 152 147 152 151 150 146 155 160 158 159 156 157 161 156 154 157 154 152 154 152 152 156 156 156 152 149 148 151 151 148 154 150 140 131 140 152 134 114 146 142 162 146 124 111 140 202 224 267 259 264 297 259 251 254 252 247 226 243 235 213 233 233 216 206 197 203 186 177 183
193 210 210 208 173 87 330 304 248 247 158 156 180 225 160 130 145 156 156 173 124 136 216 203 190 174 157 160 151 148 155 155 150 152 161 162 156 154 155 158 160 156 154 155 154 154 156 154 155 158 158 157 152 148 148 151 154 158 158 148 143 137 139 143 132 140 162 99 125 120 102 81 131 186 202 228 219 238 284 282 256 247 263 258 216 237 232 211 228 220 217 217 203 213 202 184 184
189 210 202 204 178 138 328 305 258 255 229 170 189 229 119 133 182 175 159 192 133 142 217 206 172 168 159 157 154 150 154 154 153 162 164 160 155 151 152 155 155 156 156 155 155 157 158 155 156 157 157 158 153 148 147 151 156 165 163 148 139 133 154 150 125 159 208 162 139 106 88 56 109 179 189 197 185 212 261 279 254 247 269 268 217 232 222 214 229 209 214 223 212 219 212 202 191
180 201 182 161 185 153 134 269 256 248 238 185 183 212 145 142 184 193 164 179 154 176 212 198 174 171 163 160 159 157 161 159 158 166 164 159 156 152 152 157 156 156 158 158 159 162 158 156 159 158 159 159 157 153 149 151 159 163 157 147 137 136 165 142 128 186 208 150 128 89 71 54 100 173 180 191 189 209 252 272 266 250 261 258 228 232 221 231 244 212 213 227 223 224 221 227 204
174 185 191 157 184 184 160 198 224 214 223 202 184 194 146 139 176 195 178 160 170 236 223 189 177 174 163 163 166 167 171 170 163 161 164 160 155 154 157 161 162 159 162 161 163 165 156 155 161 159 160 160 157 156 151 152 162 168 153 144 147 157 176 139 147 200 171 181 239 76 58 79 134 178 190 193 199 220 250 265 276 258 256 249 234 242 235 238 250 218 212 229 237 237 232 237 216
159 175 197 161 179 189 155 177 206 188 201 203 185 168 136 147 175 186 192 156 154 251 239 191 172 172 164 168 175 171 176 177 164 159 165 164 160 161 160 162 163 161 165 166 166 167 158 157 162 161 162 159 155 155 155 158 167 178 162 149 154 158 178 193 176 180 104 190 172 105 90 82 119 189 198 204 209 226 240 251 271 268 261 242 234 248 244 238 243 221 216 230 238 246 241 238 229
124 150 191 167 174 172 145 168 213 191 189 194 170 133 137 154 166 175 193 165 181 242 233 189 166 170 167 172 180 177 177 169 154 157 172 173 164 162 159 161 164 160 164 171 171 167 160 161 163 163 162 159 159 159 161 168 172 177 167 160 165 155 172 215 164 154 267 251 130 107 96 75 135 196 205 215 210 219 236 243 258 260 256 243 239 248 248 250 250 225 222 233 235 247 246 235 229
140 159 150 166 169 159 149 183 207 198 196 176 145 128 143 171 177 173 176 174 204 232 220 188 171 166 164 173 179 178 171 154 147 162 185 182 160 155 156 158 163 158 162 176 177 168 164 165 165 165 165 164 166 165 171 177 175 172 164 166 177 159 165 202 167 166 219 211 153 92 75 122 210 232 223 209 206 212 222 234 246 242 239 240 244 245 241 249 260 235 218 231 236 243 244 239 229
169 118 73 194 112 48 342 250 217 204 214 164 149 150 156 198 196 175 178 177 207 233 216 177 163 160 161 172 175 172 165 157 164 181 190 175 147 153 157 158 163 159 166 180 180 171 165 166 166 165 167 168 169 172 179 179 167 163 159 160 175 168 166 181 196 186 185 181 155 86 110 162 206 247 222 203 212 208 197 222 243 237 227 231 242 248 239 239 252 245 222 233 242 245 239 235 232
205 142 164 241 80 101 256 257 225 205 207 166 160 164 155 180 188 176 185 179 183 215 207 115 102 147 168 174 168 168 170 166 175 191 189 161 151 168 164 158 163 165 177 182 173 167 165 167 169 167 167 169 172 178 179 171 159 155 157 161 169 178 168 170 181 176 176 212 207 185 179 163 167 268 242 218 210 188 176 204 233 240 229 224 237 247 245 239 242 243 235 236 237 248 250 233 222
229 221 208 181 192 213 209 192 191 188 193 176 168 171 163 180 186 169 176 181 175 183 178 143 146 169 187 185 167 169 169 169 180 189 185 164 165 181 173 161 165 173 183 179 167 167 168 171 175 173 170 169 174 178 171 168 169 159 155 157 157 167 167 158 165 173 195 210 234 224 178 148 143 263 283 277 261 179 178 203 221 244 237 221 234 243 242 240 238 236 233 235 232 238 258 259 219
233 232 216 189 192 213 206 168 165 161 168 181 184 195 169 178 190 169 157 174 173 167 172 175 175 180 186 188 189 180 170 175 185 178 173 172 172 178 175 166 168 178 183 179 175 174 172 174 175 173 172 173 176 174 169 172 176 164 151 150 153 161 175 171 167 192 205 196 218 217 163 135 126 151 230 237 245 251 190 200 216 235 239 219 230 242 242 242 242 239 227 225 233 233 245 269 263
323 235 209 211 215 208 190 168 162 154 148 186 207 229 151 174 191 178 165 173 171 169 175 178 182 185 184 182 183 190 181 177 180 168 170 177 173 172 175 172 176 184 182 177 179 179 175 174 174 174 174 177 177 172 174 176 170 169 168 167 169 163 174 201 194 211 224 214 241 195 149 131 129 162 213 223 225 236 220 226 223 229 242 229 225 234 245 252 245 243 235 221 225 232 229 231 244
292 237 197 208 229 207 183 182 160 151 174 189 200 166 93 193 213 174 170 185 176 174 184 186 191 189 187 184 177 189 184 159 160 185 184 183 175 174 177 178 181 179 171 171 177 180 178 173 174 178 178 180 180 174 177 178 169 177 186 180 177 174 184 196 191 202 220 236 287 50 111 109 143 147 172 217 222 235 220 225 227 229 241 240 226 226 242 261 251 244 250 240 233 236 233 227 231
210 230 177 188 241 157 165 205 21 317 222 178 178 159 111 267 272 177 162 195 194 192 199 199 200 195 193 189 179 191 177 149 165 200 190 185 177 177 179 179 179 168 166 178 181 183 185 180 178 182 182 182 182 177 176 179 176 183 190 183 181 188 191 188 189 202 199 200 235 242 100 300 190 192 213 193 213 235 220 220 226 229 236 242 241 228 232 249 257 256 260 262 257 243 237 244 245
91 53 72 51 15 26 43 34 14 345 300 167 179 182 157 199 231 188 179 204 206 204 208 207 206 197 197 196 182 185 160 142 182 205 195 188 181 180 177 175 166 152 170 192 187 184 190 188 186 187 188 184 182 181 180 180 181 187 187 180 186 192 187 187 204 208 186 178 198 203 199 237 261 245 201 160 188 228 223 223 227 230 230 234 242 248 243 238 245 257 264 269 269 254 247 272 289
79 67 78 63 32 354 344 71 89 353 2 232 204 99 77 135 174 165 190 239 236 217 215 211 205 197 202 197 178 182 164 153 193 199 182 185 183 174 162 158 142 137 174 197 187 185 190 189 190 192 190 184 182 184 184 182 182 188 186 180 192 198 188 190 208 209 178 173 191 197 203 216 234 239 182 154 182 218 225 225 227 236 233 228 233 247 262 249 239 243 252 265 272 260 256 272 285
81 65 80 105 127 212 219 176 180 188 126 201 161 94 87 101 99 355 313 320 300 243 233 226 208 194 199 194 183 188 158 147 195 186 152 162 170 157 147 147 139 145 169 181 183 195 196 189 192 195 192 185 184 186 185 185 184 189 188 185 196 203 194 190 197 205 199 197 196 192 202 211 216 230 219 212 222 220 224 222 224 233 237 233 221 230 248 250 246 237 240 255 266 266 259 262 269
75 49 32 126 180 184 186 177 174 150 112 115 95 90 80 74 41 354 335 329 309 278 260 251 231 200 193 189 181 167 121 138 184 180 156 158 156 157 158 158 156 159 163 167 182 198 196 193 195 196 193 184 183 188 186 186 190 191 190 192 200 201 201 203 200 201 204 209 201 193 198 203 205 223 231 229 231 221 211 212 220 226 230 236 218 215 228 239 246 242 238 246 250 254 252 250 259
115 95 85 223 237 177 163 156 132 109 110 64 30 13 18 44 28 0 344 335 319 303 313 343 303 254 195 187 158 110 103 142 171 174 169 165 165 171 167 162 162 165 166 170 185 195 194 196 197 197 195 184 181 187 188 189 193 196 193 196 204 202 202 210 217 216 205 198 198 198 203 203 201 213 222 226 233 222 205 205 212 215 218 226 226 222 223 229 236 229 230 239 238 239 240 241 248
177 163 171 217 275 193 191 244 110 107 101 55 22 13 26 29 13 356 341 340 318 293 3 48 360 358 109 182 145 109 108 131 143 171 178 165 163 165 161 157 157 165 170 176 191 197 194 195 195 197 194 184 183 186 188 192 194 197 199 202 206 205 204 201 208 232 235 218 204 197 202 208 207 210 219 228 236 229 210 200 201 209 216 219 224 227 225 230 235 221 215 222 229 233 233 237 243
210 186 189 218 240 122 88 25 69 98 104 72 37 49 51 1 350 358 37 4 320 237 101 63 48 35 41 60 80 82 80 80 102 143 201 166 154 155 159 154 153 164 170 180 192 194 199 199 198 199 192 184 188 188 189 193 195 196 201 207 211 210 208 199 194 211 234 238 236 212 199 206 213 218 226 240 249 245 223 210 210 216 219 217 220 226 225 230 237 232 227 227 225 229 234 238 240
194 208 222 189 124 126 153 72 86 108 97 84 83 99 148 204 349 333 91 63 43 149 137 109 97 76 63 62 71 85 81 69 126 165 205 180 149 153 158 150 152 168 175 185 189 189 208 210 198 195 186 182 189 194 193 194 195 200 201 206 214 213 210 205 199 203 211 214 224 233 223 214 214 217 222 238 254 256 231 221 232 230 218 211 213 226 230 230 233 232 233 236 233 231 232 236 237
238 168 189 151 132 146 218 119 124 152 99 95 153 125 145 141 54 313 65 79 70 96 107 103 107 111 119 111 104 123 126 128 153 162 162 141 137 160 163 155 164 175 177 181 182 193 209 209 197 191 184 181 185 194 203 200 199 205 207 208 214 215 213 212 206 206 210 206 202 213 224 227 225 218 217 228 242 248 238 225 231 239 232 218 209 219 233 236 235 230 227 234 240 237 233 234 237
249 326 54 137 164 195 230 170 130 141 120 116 118 91 63 65 93 70 71 78 76 79 79 76 84 92 99 94 89 104 120 124 129 126 113 94 104 147 140 139 161 171 165 166 182 200 198 185 192 196 190 190 190 195 206 207 209 214 214 214 214 215 218 220 214 207 209 213 209 208 212 215 218 220 221 227 235 242 242 231 224 228 234 233 224 221 226 231 235 233 231 236 243 244 239 236 236
221 276 324 164 185 67 110 184 87 113 127 126 114 93 79 55 47 65 69 71 76 81 78 73 73 67 70 83 87 91 99 102 104 103 101 95 88 93 98 109 139 145 136 151 176 198 181 168 202 207 199 202 204 207 207 205 226 233 226 220 216 213 217 222 222 215 212 216 219 217 212 206 207 214 219 223 228 234 238 238 232 228 229 230 230 226 223 223 227 227 228 235 244 247 246 243 240
226 265 223 155 31 70 100 76 39 154 142 122 112 97 73 50 5 49 71 69 65 75 76 71 72 66 65 77 89 93 93 93 98 101 104 99 93 101 105 105 108 98 98 123 131 143 176 186 196 197 202 209 212 221 218 208 232 241 232 224 221 215 214 219 221 221 220 219 222 223 217 211 209 212 217 220 224 229 234 237 238 237 235 232 230 229 225 223 225 225 223 227 236 242 245 245 243
246 237 315 350 52 72 65 59 254 255 49 104 111 108 49 348 306 34 79 82 71 75 76 70 69 67 66 73 80 84 84 82 86 92 96 90 79 84 93 92 95 96 97 111 120 145 192 202 184 176 199 216 209 211 224 225 231 235 230 225 226 219 213 217 222 226 227 224 227 228 224 226 225 218 217 218 221 226 229 233 236 238 243 243 239 235 232 227 223 224 227 228 230 235 241 245 243